SCP
0 0 0 0 0 0 0 0 0 0 0 0 1 1 2 3 3 2 3 4 5 5 6 8 8 8 8 9 8 7 6 4 4 3 3 3 3 3 3 3 3 3 2 2
0 0 0 0 0 0 0 0 0 0 0 0 0 1 2 3 3 3 3 5 5 5 7 9 10 9 8 8 8 7 6 4 4 3 3 3 3 3 3 4 3 3 2 2
0 0 0 0 0 0 0 0 0 0 0 0 0 1 2 3 3 3 4 5 5 6 8 10 10 9 9 8 8 7 6 4 4 3 3 4 3 3 3 3 3 3 2 2
0 0 0 0 0 0 0 0 0 0 0 0 0 1 3 3 2 3 4 5 5 6 8 10 10 9 8 8 7 6 5 4 4 4 4 4 4 3 3 3 3 3 2 2
0 0 0 0 0 0 0 0 0 0 0 0 0 1 2 2 2 2 4 4 5 6 8 9 9 8 8 7 6 5 5 4 4 3 4 5 5 4 3 3 3 3 3 3
0 0 0 0 0 0 0 0 0 0 0 0 0 1 1 2 1 2 3 4 5 6 7 8 8 8 8 7 6 5 5 5 4 3 4 5 5 4 3 3 3 3 3 3
0 0 0 0 0 0 0 0 0 0 0 0 1 1 1 1 1 1 3 5 6 6 6 7 7 7 7 6 5 5 5 5 4 3 3 4 5 4 3 3 3 4 4 4
0 0 0 0 0 0 0 0 0 0 0 1 1 1 1 1 1 2 4 7 7 6 7 7 6 6 6 6 5 5 6 5 4 3 3 4 4 4 3 3 4 5 5 4
0 0 0 0 0 0 0 0 0 0 1 1 0 1 1 1 1 2 5 7 7 7 7 6 6 6 6 6 6 6 6 5 4 4 3 3 4 3 3 3 4 4 4 4
0 0 0 0 0 0 0 0 0 1 1 1 0 1 1 1 1 2 4 4 4 5 5 5 5 6 7 7 6 6 6 5 5 4 4 3 3 3 3 2 2 3 3 3
0 0 0 0 0 0 0 0 0 1 1 1 0 1 1 1 2 2 2 2 3 3 3 5 6 6 7 7 6 6 6 6 5 5 4 4 4 3 2 2 2 2 2 2
0 0 0 0 0 0 0 0 0 1 1 1 1 1 1 2 2 2 2 2 2 2 3 5 6 6 6 7 7 7 6 6 5 5 5 5 5 4 2 2 2 2 1 1
1 1 1 0 0 0 0 0 0 1 1 0 0 1 1 2 2 2 2 2 2 2 4 6 6 7 7 8 8 8 7 6 5 4 5 5 5 3 2 2 2 2 1 1
1 1 0 0 0 1 0 0 0 1 0 0 0 1 1 1 1 1 2 2 2 3 5 6 7 8 9 9 8 7 5 4 4 3 3 3 3 3 2 2 2 1 1 1
1 0 0 0 1 1 1 1 0 0 0 0 0 1 1 1 1 1 2 2 2 3 4 5 6 7 8 7 6 4 3 3 3 2 2 2 3 2 2 2 2 1 1 1
1 1 1 1 1 0 1 0 0 0 0 0 1 1 1 1 1 2 2 2 2 2 3 4 5 6 5 4 3 3 3 3 2 2 2 2 2 2 2 2 2 2 1 1
1 1 1 1 1 0 0 0 0 1 1 1 1 1 1 1 2 2 2 2 2 2 3 3 4 4 4 3 3 3 3 3 3 2 2 3 3 2 2 2 2 2 2 1
2 2 1 1 1 1 0 0 1 1 1 1 1 1 1 2 2 2 2 2 2 3 3 3 4 4 4 4 4 4 4 4 3 3 2 3 3 2 2 2 2 2 2 1
2 2 1 1 1 1 1 1 1 1 2 2 2 1 2 2 3 3 3 3 3 4 4 4 4 4 4 4 4 4 4 4 4 3 3 3 3 3 2 2 2 2 2 2
1 1 1 1 1 1 1 1 1 1 2 2 2 2 2 2 2 3 3 3 4 4 5 4 4 5 5 5 6 6 5 5 5 4 4 3 3 3 3 3 3 3 3 2
1 1 1 1 1 1 1 1 1 1 2 3 4 3 3 3 3 2 3 3 4 4 4 5 6 6 6 6 8 8 7 6 6 5 5 4 4 3 4 5 6 5 4 4
1 1 1 1 1 1 1 2 2 2 3 3 4 3 3 3 3 3 2 3 3 3 4 5 6 5 5 7 9 10 9 9 7 6 6 6 5 4 5 6 7 7 6 5
1 1 2 2 2 2 2 2 2 2 3 3 3 2 2 2 3 3 3 3 3 3 4 5 6 5 5 7 9 11 11 10 8 7 6 6 6 5 6 7 8 8 7 6
1 1 2 2 2 2 2 2 2 2 2 2 2 2 1 2 3 3 3 3 3 3 4 5 6 7 7 8 10 12 11 9 7 6 6 7 6 6 7 7 8 7 7 6
1 1 1 1 1 1 2 2 2 2 2 2 2 1 1 2 3 3 3 3 4 4 4 5 6 7 9 10 11 13 11 9 7 6 6 7 6 6 6 6 6 6 6 6
1 1 1 1 1 1 1 2 1 1 1 1 2 1 2 2 3 4 4 4 4 4 4 4 5 6 8 11 13 13 12 9 7 6 6 7 6 5 5 6 5 4 4 5
Wind_Speed
15 15 15 16 16 14 12 11 9 9 9 11 10 9 10 12 12 12 13 13 13 12 14 13 13 13 13 12 11 10 10 9 7 6 5 5 4 4 4 4 5 5 4 3
15 18 17 15 14 14 13 13 12 9 8 8 8 9 9 11 12 11 13 14 15 14 13 14 13 13 13 13 12 11 10 10 8 6 4 4 4 4 4 4 5 5 4 4
19 15 16 15 14 13 13 13 11 9 8 10 10 9 8 8 11 12 13 14 15 16 16 15 14 13 13 13 13 11 11 10 9 8 5 5 4 3 4 5 4 4 4 3
18 17 13 14 15 14 12 11 11 10 11 8 7 7 7 9 11 12 13 14 15 15 16 15 14 13 13 12 12 11 11 10 9 8 8 9 7 6 6 5 5 5 4 4
16 17 15 14 14 13 12 10 11 11 11 11 8 8 7 10 11 12 14 15 15 16 17 17 16 14 13 13 12 11 10 10 9 8 7 7 6 5 5 5 6 5 4 4
16 14 15 14 12 12 11 11 10 10 9 11 10 9 7 7 10 12 14 15 16 16 17 16 15 14 12 12 12 12 11 10 9 9 8 7 7 7 7 7 6 5 4 4
16 16 15 12 12 12 11 9 6 5 6 8 7 8 6 7 8 9 12 15 15 16 16 17 16 15 13 13 12 12 12 11 10 9 8 7 7 7 7 7 6 6 5 4
15 15 14 13 12 10 11 11 8 6 6 5 6 7 3 4 6 7 8 12 14 15 16 17 17 16 14 14 13 12 12 11 10 9 8 7 7 6 6 6 6 5 4 5
11 11 11 11 11 12 11 11 9 8 9 7 5 6 3 3 3 7 9 11 12 14 15 16 17 16 14 14 13 13 12 11 10 10 9 7 7 6 6 6 5 4 4 6
10 8 10 10 10 13 11 9 6 6 5 6 3 2 2 4 3 5 9 11 12 11 14 14 15 15 14 13 12 13 12 11 11 10 9 8 7 6 6 6 5 5 5 5
11 9 9 10 12 12 11 11 8 5 5 6 3 1 3 8 4 4 7 10 13 13 14 15 14 14 14 14 13 12 12 11 10 10 9 8 8 7 6 5 5 5 6 7
9 8 7 9 9 8 8 9 8 6 6 6 5 3 5 7 4 3 7 8 10 12 13 14 15 14 14 14 14 12 12 12 10 9 8 8 8 8 7 6 6 6 6 6
5 6 7 7 8 6 7 8 9 8 6 7 5 2 1 3 3 1 6 9 10 10 12 14 14 14 13 13 13 13 12 12 11 10 9 9 9 8 7 7 7 6 6 6
4 6 8 7 3 5 8 9 8 8 7 7 4 3 2 5 4 3 5 8 10 10 11 12 12 11 11 11 11 12 13 12 12 11 10 9 9 8 8 7 7 7 7 6
5 8 9 8 6 8 9 11 11 9 10 10 6 4 3 4 4 3 5 8 11 11 12 12 12 11 11 11 11 11 11 11 11 11 10 9 9 8 8 8 8 7 7 8
5 6 7 8 8 9 11 12 11 11 12 11 6 3 2 3 4 5 7 8 10 11 13 14 13 13 12 11 11 11 10 10 10 10 10 10 9 9 9 8 8 7 7 6
5 5 7 8 8 9 11 10 12 10 8 7 4 0 2 3 3 3 4 6 8 11 12 13 13 12 11 12 10 10 10 9 9 9 9 10 10 9 9 10 9 8 7 6
6 5 5 8 7 11 6 5 8 5 3 3 2 1 1 1 1 0 1 4 6 8 10 11 12 12 11 11 11 10 11 10 10 10 10 10 10 10 9 8 8 8 7 6
6 6 6 7 9 9 7 5 4 2 2 5 3 2 1 1 1 2 2 3 4 5 7 9 11 12 11 11 11 11 11 11 12 12 11 11 10 10 9 9 8 8 7 7
6 5 7 8 8 6 3 4 4 2 2 5 5 5 4 1 1 2 4 4 3 3 4 6 9 11 11 10 11 11 12 12 12 12 11 10 10 10 9 8 8 7 7 7
8 6 8 9 8 4 4 4 5 4 2 6 6 6 7 5 3 2 4 4 2 2 3 4 7 8 9 9 10 10 11 11 11 11 10 10 10 9 9 8 7 7 7 7
4 5 7 7 8 4 6 5 4 4 5 5 6 6 6 5 4 2 3 3 2 2 3 3 4 6 7 8 9 9 8 8 9 9 9 9 9 10 10 8 8 8 7 7
1 2 1 1 0 3 6 5 5 4 4 5 4 5 5 4 5 4 3 3 2 2 4 3 3 5 5 7 7 8 7 6 7 8 8 8 9 8 7 9 9 8 7 7
1 2 1 0 1 3 5 4 4 3 4 4 4 5 5 5 5 5 4 3 2 2 3 3 3 4 4 5 5 5 6 6 7 7 7 7 8 8 7 7 7 8 8 8
4 2 1 1 1 2 3 4 4 5 5 5 5 5 4 5 5 4 4 3 2 3 2 2 3 3 3 3 3 4 4 5 6 7 7 8 8 8 7 7 5 7 5 6
3 2 1 1 2 2 2 4 5 4 4 4 4 4 4 4 4 3 3 3 4 3 3 3 3 3 3 3 3 2 3 4 5 6 6 7 7 7 7 7 5 3 3 6
Wind_Direction
210 223 228 232 229 236 252 262 256 250 227 226 226 215 208 204 204 192 178 173 173 171 166 165 166 159 155 155 159 160 156 153 156 157 162 158 153 155 140 141 141 147 151 152
209 225 235 238 240 239 245 254 256 254 249 241 234 231 219 207 205 200 186 178 174 169 165 165 165 164 161 161 163 161 160 160 164 160 156 154 146 156 140 127 137 148 149 159
223 223 225 237 242 241 244 252 262 266 267 250 250 244 243 228 213 204 193 180 180 173 171 168 168 168 166 166 168 168 164 163 165 157 156 146 135 146 136 143 154 156 152 147
232 236 227 228 239 243 248 254 261 256 256 256 252 253 228 226 217 206 196 184 179 174 171 169 170 169 170 168 167 162 161 162 163 165 165 164 170 168 159 157 152 154 155 150
229 232 232 228 237 243 253 261 262 263 263 265 252 251 225 207 212 211 201 190 180 174 173 172 173 170 170 168 165 164 161 163 167 171 165 173 168 160 149 144 147 153 156 158
240 233 237 237 234 242 253 259 260 263 267 261 257 254 239 210 209 208 194 188 176 172 170 169 169 165 166 165 165 164 163 166 170 173 171 179 167 160 151 153 157 165 163 166
234 237 230 233 238 229 238 249 254 261 262 267 292 268 232 199 193 200 184 176 169 168 167 166 165 165 166 168 166 162 163 167 170 176 176 177 165 160 158 161 170 175 167 166
225 232 224 217 230 235 230 241 244 250 254 271 300 273 265 233 174 166 159 159 162 165 167 167 166 166 168 169 165 162 166 169 172 178 176 172 165 170 172 175 174 179 168 155
229 235 220 213 220 235 236 243 248 251 257 256 228 252 252 262 163 151 151 151 158 164 165 164 162 165 168 169 168 165 167 169 173 174 169 169 175 180 167 166 179 168 153 150
254 246 226 217 223 232 239 243 252 259 272 275 265 285 300 299 221 159 154 153 154 164 162 162 161 165 168 168 167 166 168 170 172 170 171 171 174 169 161 171 175 156 150 138
242 251 235 217 222 230 226 239 253 263 266 278 274 261 282 279 272 173 159 154 158 167 166 164 164 164 165 166 166 168 169 169 172 172 176 161 165 165 164 168 164 156 148 149
224 242 244 238 237 252 247 246 244 248 264 281 282 239 241 250 262 187 138 140 156 168 161 162 158 159 165 166 167 169 169 170 172 169 167 161 162 164 168 170 164 156 155 163
219 240 239 241 243 242 252 247 248 253 258 260 266 241 233 297 319 250 139 143 150 149 152 153 154 159 165 165 165 167 170 170 170 169 169 164 166 168 171 166 160 162 166 173
227 239 251 245 250 282 270 271 272 268 263 268 261 219 244 272 276 267 146 145 143 151 150 152 150 155 160 162 164 167 171 169 170 170 171 168 169 168 168 164 163 167 171 173
233 235 246 259 257 244 252 264 264 265 267 267 254 224 201 241 233 231 176 156 154 159 155 156 155 157 160 163 165 167 169 168 169 169 171 170 168 166 168 169 169 170 175 180
230 262 261 257 261 267 269 264 265 255 257 264 256 246 127 251 248 223 183 159 160 164 163 162 163 164 166 167 169 169 168 167 165 169 170 167 170 171 174 172 172 172 180 182
229 247 262 261 252 264 260 264 260 254 256 270 280 151 172 199 226 208 169 163 170 172 167 166 169 169 168 170 170 169 166 162 166 170 170 168 172 174 177 179 175 176 180 184
243 242 256 265 267 257 258 256 271 273 301 318 329 46 5 357 278 145 140 173 165 165 165 167 170 169 171 172 169 168 167 167 172 174 175 173 177 179 178 181 176 177 180 185
231 228 241 251 253 255 279 302 293 304 342 1 345 9 55 249 155 58 68 97 127 155 160 166 172 170 169 171 169 170 173 173 178 181 180 178 179 178 180 184 181 180 183 187
213 217 236 242 254 260 275 317 322 231 195 29 18 10 356 331 282 8 40 64 76 107 140 157 168 167 166 167 167 174 179 180 184 184 181 180 178 179 183 183 181 182 184 190
201 209 232 245 252 262 316 309 293 264 80 32 29 18 12 12 10 6 22 50 75 82 122 146 155 162 163 162 167 179 184 186 185 183 180 179 179 181 182 179 180 179 187 194
222 219 228 238 241 248 357 357 17 40 37 29 25 24 31 20 15 36 36 25 46 92 123 139 152 152 155 161 169 180 186 184 180 180 179 179 180 189 189 180 182 187 191 193
309 314 314 335 283 50 40 50 51 25 21 20 10 11 22 11 2 7 25 15 12 65 104 118 139 137 149 162 174 184 182 180 180 178 179 178 181 191 181 181 185 188 191 203
322 353 325 32 64 53 40 28 39 41 32 12 0 357 6 6 359 352 2 13 9 45 90 116 128 134 142 160 175 183 178 177 181 182 184 180 183 190 182 182 189 194 196 204
319 311 267 246 316 358 21 10 22 31 30 20 1 356 357 5 356 357 16 19 31 57 74 98 115 125 135 145 161 173 174 176 183 184 187 189 190 190 186 185 192 199 195 199
318 332 312 317 351 318 325 343 358 12 21 19 2 347 352 13 2 13 29 44 56 67 69 88 108 121 124 127 136 150 164 172 179 184 187 194 196 188 187 182 182 129 149 152